Weather observations for the past three days for
Las Vegas - Henderson Executive Airport
Metric (Imperial)
Date Time (pdt) Wind (kph) Vis. (km) Weather Sky Cond. Temperature (ºC) Relative Humidity Wind Chill (°C) Heat Index (°C) Pressure Precipitation (cm)
Air Dwpt 6 hour altimeter (cm) sea level (mb) 1 hr 3 hr 6 hr
Max. Min.
06 01:56 S 22 16.09 Fair CLR 17.2 1.7 35% 76 1013.1
06 00:56 S 20 16.09 Fair CLR 17.8 0.6 32% 76 1013.3
05 23:56 S 17 16.09 Fair CLR 17.8 -2.8 25% 76 1013.2
05 22:56 SW 17 16.09 Fair CLR 18.9 -1.7 23.9 18.9 25% 75.95 1012.5
05 21:56 SW 17 16.09 Fair CLR 19.4 -0.6 26% 75.92 1012.1
05 20:56 SW 20 16.09 Fair CLR 20 -0.6 25% 75.84 1011.4
05 19:56 SW 22 16.09 Fair CLR 21.1 -0.6 23% 75.77 1010.4
05 18:56 SW 20 G 28 16.09 Fair CLR 22.2 -0.6 22% 75.74 1009.8
05 17:56 SW 15 16.09 Fair CLR 22.8 -1.1 20% 75.72 1009.7
05 16:56 Vrbl 7 16.09 Fair CLR 23.3 -3.9 23.9 19.4 16% 75.69 1009.3
05 15:56 Vrbl 9 16.09 Fair CLR 23.3 -2.8 17% 75.72 1009.6
05 14:56 W 13 16.09 Fair CLR 23.3 -1.7 19% 75.77 1010.1
05 13:56 Calm 16.09 A Few Clouds FEW090 21.7 -1.7 21% 75.82 1010.8
05 12:56 W 11 16.09 Mostly Cloudy BKN080 21.1 -0.6 23% 75.82 1011.1
05 11:56 Vrbl 11 16.09 Fair CLR 20 -0.6 25% 75.87 1011.6
05 10:56 Vrbl 6 G 28 16.09 A Few Clouds FEW070 20 0.6 20 12.2 27% 75.87 1011.6
05 09:56 S 19 16.09 Fair CLR 18.9 1.1 30% 75.87 1011.5
05 08:56 SW 26 16.09 Fair CLR 16.1 1.7 38% 75.87 1011.8
05 07:56 S 17 16.09 Fair CLR 15.6 2.8 42% 75.87 1011.7
05 06:56 SW 24 16.09 Fair CLR 13.9 2.8 47% 75.82 1011.2
05 05:56 S 22 16.09 Fair CLR 12.8 2.2 49% 75.79 1010.8
05 04:56 S 19 16.09 Fair CLR 12.2 2.2 17.2 12.2 51% 75.79 1010.7
05 03:56 S 15 16.09 Fair CLR 12.8 1.7 47% 75.79 1010.5
05 02:56 S 13 16.09 Fair CLR 13.3 1.7 46% 75.79 1010.7
05 01:56 S 20 16.09 Fair CLR 14.4 2.2 44% 75.79 1010.6
05 00:56 S 13 16.09 Fair CLR 15 1.7 41% 75.82 1010.9
04 23:56 SW 22 16.09 Fair CLR 15.6 1.1 38% 75.82 1010.8
04 22:56 SW 19 16.09 Fair CLR 17.2 0.6 23.3 17.2 33% 75.79 1010.6
04 21:56 SW 11 16.09 Fair CLR 18.3 0 29% 75.79 1010.5
04 20:56 SW 20 16.09 Fair CLR 19.4 -0.6 26% 75.74 1009.7
04 19:56 SW 20 16.09 Fair CLR 20.6 -1.1 23% 75.64 1008.6
04 18:56 SW 24 16.09 Fair CLR 21.7 -2.8 19% 75.64 1008.4
04 17:56 SW 28 G 39 16.09 Fair CLR 23.3 -2.8 17% 75.64 1008.2
04 16:56 W 30 G 35 16.09 Fair CLR 22.8 -3.3 24.4 20 17% 75.64 1008.4
04 15:56 SW 39 G 44 16.09 Fair and Breezy CLR 24.4 -6.1 13% 24 75.67 1008.1
04 14:56 SW 24 G 39 16.09 Fair CLR 24.4 -7.2 12% 24 75.69 1008.7
04 13:56 SW 28 G 41 16.09 Fair CLR 24.4 -6.7 12% 24 75.74 1009.3
04 12:56 SW 28 G 44 16.09 Fair CLR 23.3 -3.9 16% 75.77 1009.8
04 11:56 SW 31 G 44 16.09 Fair CLR 22.2 -1.1 21% 75.79 1010.1
04 10:56 SW 28 G 41 16.09 Fair CLR 20 1.7 20 15.6 30% 75.84 1010.6
04 09:56 SW 30 16.09 Fair CLR 19.4 2.8 33% 75.79 1010.1
04 08:56 SW 22 16.09 Fair CLR 17.8 3.3 38% 75.79 1010.2
04 07:56 SW 26 16.09 Fair CLR 16.7 3.3 41% 75.77 1009.8
04 06:56 S 22 16.09 Fair CLR 16.1 3.3 43% 75.74 1009.3
04 05:56 S 33 16.09 Fair and Breezy CLR 16.1 3.3 43% 75.67 1008.3
04 04:56 S 17 16.09 Fair CLR 17.2 2.8 23.9 17.2 38% 75.67 1008.1
04 03:56 SW 28 16.09 Fair CLR 18.3 3.3 37% 75.67 1008.0
04 02:56 S 24 16.09 Fair CLR 18.9 3.3 36% 75.69 1008.2
04 01:56 S 24 G 30 16.09 A Few Clouds FEW100 20 2.2 31% 75.69 1008.4
04 00:56 SW 22 16.09 Fair CLR 21.1 0 25% 75.64 1007.4
03 22:56 SW 20 16.09 Fair CLR 23.9 -6.1 31.7 23.9 13% 24 75.57 1006.5
03 21:56 SW 24 16.09 Fair CLR 24.4 -6.1 13% 24 75.57 1006.4
03 20:56 SW 15 16.09 Fair CLR 25.6 -2.2 16% 25 75.54 1006.2
03 19:56 S 33 16.09 Fair and Breezy CLR 27.2 -4.4 12% 26 75.46 1005.0
03 18:56 S 20 16.09 Fair CLR 28.3 -3.9 12% 27 75.44 1005.0
03 17:56 SW 35 16.09 Fair and Breezy CLR 29.4 -4.4 11% 28 75.44 1005.2
03 16:56 SW 33 G 46 16.09 Fair and Breezy CLR 31.7 -4.4 32.8 27.8 9% 30 75.44 1005.0
03 15:56 S 33 G 44 16.09 Fair and Breezy CLR 30.6 -2.8 11% 29 75.46 1005.5
03 14:56 S 30 G 41 16.09 Fair CLR 30 -2.2 12% 28 75.57 1006.8
03 13:56 S 37 G 48 16.09 Fair and Breezy CLR 31.1 -2.2 11% 29 75.62 1007.4
03 12:56 S 35 G 56 16.09 Fair and Breezy CLR 30.6 -3.3 11% 29 75.69 1008.5
03 10:56 Vrbl 11 16.09 Fair CLR 27.2 -7.8 27.2 14.4 9% 26 75.9 1011.1
03 09:56 Calm 16.09 Fair CLR 25.6 -11.1 8% 25 75.95 1011.9
03 08:56 Calm 16.09 Fair CLR 23.9 -10.6 9% 24 75.97 1012.3
03 07:56 S 6 16.09 Fair CLR 21.1 -10 11% 75.97 1012.3
03 06:56 S 7 16.09 Fair CLR 16.7 -7.8 18% 75.97 1012.4
03 05:56 S 6 16.09 Fair CLR 15 -8.9 18% 75.92 1011.8
03 04:56 S 9 16.09 Fair CLR 15.6 -11.7 20 15 14% 75.9 1011.5
03 03:56 S 11 16.09 Fair CLR 15 -10 17% 75.92 1011.7
03 02:56 S 15 16.09 Fair CLR 15 -8.9 18% 75.92 1011.8
Date Time (pdt) Wind (kph) Vis. (km) Weather Sky Cond. Air Dwpt Max. Min. Relative Humidity Wind Chill (°C) Heat Index (°C) altimeter (cm) sea level (mb) 1 hr 3 hr 6 hr
6 hour
Temperature (ºC) Pressure Precipitation (cm)